EW2106 Weather Reports


Display with metric or nautical units.
time (UTC)temp
F
wind
direction
speed
MPH
gust
MPH
rain 1hr
in
rain 24hr
in
rain mn
in
humidity
%
barometer
mb
20260507121055 49 5 1.0 6.0 0.00 0.13 0.08 84 1007.3
20260507120557 48 300 2.0 6.0 0.00 0.13 0.08 84 1007.3
20260507120055 48 332 1.0 7.0 0.00 0.13 0.08 85 1007.3
20260507115555 48 11 2.0 7.0 0.00 0.13 0.08 85 1007.2
20260507115054 48 303 1.0 8.0 0.00 0.13 0.08 86 1007.1
20260507114610 48 329 1.0 8.0 0.00 0.13 0.08 86 1007.2
20260507114054 48 352 2.0 8.0 0.00 0.13 0.08 86 1007.2
20260507113556 48 32 1.0 4.0 0.00 0.13 0.08 87 1007.1
20260507113055 48 332 1.0 4.0 0.00 0.13 0.08 87 1007.1
20260507112557 48 12 0.0 5.0 0.00 0.13 0.08 88 1007.0
20260507112057 48 0 0.0 5.0 0.00 0.13 0.08 88 1006.9
20260507111603 48 355 1.0 5.0 0.01 0.13 0.08 88 1006.9
20260507111056 48 5 0.0 3.0 0.01 0.13 0.08 89 1006.9
20260507110558 47 342 0.0 3.0 0.01 0.13 0.08 89 1006.9
20260507110057 48 0 0.0 3.0 0.02 0.13 0.08 89 1007.2
20260507105554 48 0 0.0 3.0 0.02 0.13 0.08 89 1007.2
20260507105057 48 0 0.0 3.0 0.02 0.13 0.08 89 1007.3
20260507104559 48 318 0.0 3.0 0.02 0.13 0.08 88 1007.2
20260507104054 48 0 0.0 3.0 0.02 0.13 0.08 88 1006.8
20260507103554 48 0 0.0 4.0 0.03 0.13 0.08 88 1006.9
20260507103058 48 0 1.0 4.0 0.04 0.13 0.08 87 1006.9
20260507102557 48 298 1.0 4.0 0.05 0.13 0.08 87 1007.0
20260507102054 48 342 1.0 4.0 0.06 0.13 0.08 87 1006.9
20260507101555 48 303 1.0 7.0 0.05 0.12 0.07 87 1006.8
20260507101056 48 5 1.0 8.0 0.05 0.12 0.07 86 1006.8
20260507100558 48 292 2.0 8.0 0.05 0.12 0.07 86 1006.8
20260507100058 48 327 3.0 10.0 0.04 0.11 0.06 86 1006.6
20260507095559 48 305 3.0 10.0 0.04 0.11 0.06 86 1006.5
20260507095056 48 345 4.0 10.0 0.04 0.11 0.06 86 1006.6
20260507094601 48 340 3.0 9.0 0.04 0.11 0.06 86 1006.6
20260507094058 48 325 3.0 8.0 0.05 0.11 0.06 86 1006.6
20260507093557 49 281 3.0 10.0 0.04 0.10 0.05 85 1006.6
20260507093057 49 355 4.0 10.0 0.03 0.09 0.04 85 1006.5
20260507092559 49 292 2.0 6.0 0.02 0.08 0.03 85 1006.6
20260507092058 49 327 2.0 14.0 0.01 0.07 0.02 85 1006.5
20260507091555 49 310 3.0 14.0 0.01 0.07 0.02 84 1006.8
20260507091054 50 338 4.0 11.0 0.01 0.07 0.02 83 1006.6
20260507090558 50 310 3.0 11.0 0.01 0.07 0.02 83 1006.6
20260507090057 50 314 4.0 9.0 0.02 0.07 0.02 84 1006.7
20260507085558 50 319 2.0 10.0 0.02 0.07 0.02 84 1006.5
20260507085100 50 272 2.0 12.0 0.02 0.07 0.02 84 1006.1
20260507084559 50 336 4.0 12.0 0.02 0.07 0.02 84 1006.1
20260507084057 50 324 5.0 12.0 0.01 0.06 0.01 84 1006.3
20260507083555 50 336 3.0 10.0 0.01 0.06 0.01 85 1006.1
20260507083056 50 355 2.0 10.0 0.01 0.06 0.01 84 1005.9
20260507082557 50 348 3.0 17.0 0.01 0.06 0.01 84 1006.1
20260507082055 50 310 4.0 17.0 0.01 0.06 0.01 84 1006.1
20260507081557 51 325 5.0 17.0 0.01 0.06 0.01 84 1006.2
20260507081057 51 348 6.0 13.0 0.01 0.06 0.01 84 1006.2
20260507080556 51 344 6.0 13.0 0.01 0.06 0.01 83 1006.1
20260507080101 51 308 4.0 13.0 0.00 0.05 0.00 82 1006.0
20260507075555 52 325 5.0 12.0 0.00 0.05 0.00 81 1006.0
20260507075055 52 323 4.0 11.0 0.00 0.05 0.00 82 1006.0
20260507074558 52 5 4.0 11.0 0.00 0.05 0.00 81 1005.9
20260507074055 52 360 2.0 12.0 0.00 0.05 0.00 82 1005.5
20260507073557 52 304 2.0 12.0 0.00 0.05 0.00 81 1005.6
20260507073109 52 355 2.0 11.0 0.00 0.05 0.00 81 1005.7
20260507072555 52 350 3.0 11.0 0.00 0.05 0.00 81 1005.6
20260507072058 52 290 3.0 10.0 0.00 0.05 0.00 81 1005.7
20260507071610 52 309 4.0 10.0 0.00 0.05 0.00 81 1005.6
20260507071055 52 307 4.0 10.0 0.00 0.05 0.00 82 1005.7
20260507070556 53 327 3.0 10.0 0.00 0.05 0.00 83 1005.6
20260507070105 53 275 2.0 10.0 0.00 0.05 0.00 84 1005.6
20260507065600 53 325 3.0 10.0 0.00 0.05 0.00 85 1005.6
20260507065055 53 327 3.0 9.0 0.00 0.05 0.00 85 1005.6
20260507064600 53 282 1.0 8.0 0.00 0.05 0.00 86 1005.5
20260507064055 53 320 1.0 8.0 0.00 0.05 0.00 86 1005.2
20260507063554 53 306 2.0 8.0 0.00 0.05 0.00 85 1005.2
20260507063100 53 260 3.0 8.0 0.00 0.05 0.00 85 1005.2
20260507062555 54 326 1.0 6.0 0.00 0.05 0.00 86 1005.3
20260507062055 54 331 1.0 5.0 0.00 0.05 0.00 86 1005.4
20260507061556 54 341 2.0 5.0 0.00 0.05 0.00 86 1005.6
20260507061054 54 304 1.0 7.0 0.00 0.05 0.00 86 1005.7
20260507060554 54 267 2.0 8.0 0.00 0.05 0.00 87 1005.5
20260507060100 54 197 2.0 11.0 0.00 0.05 0.00 88 1005.5
20260507055556 54 306 3.0 11.0 0.00 0.05 0.00 89 1005.7
20260507055057 54 263 3.0 10.0 0.00 0.05 0.00 90 1005.8
20260507054554 54 322 2.0 8.0 0.00 0.05 0.00 91 1005.6
20260507054059 54 330 2.0 10.0 0.00 0.05 0.00 90 1005.7
20260507053556 54 344 2.0 10.0 0.00 0.05 0.00 90 1005.6
20260507053116 54 321 4.0 11.0 0.00 0.05 0.00 90 1005.4
20260507052554 55 286 4.0 11.0 0.00 0.05 0.00 90 1005.4
20260507052055 55 324 4.0 11.0 0.00 0.05 0.00 90 1005.6
20260507051555 56 350 5.0 11.0 0.00 0.05 0.00 90 1005.6
20260507051054 57 330 3.0 13.0 0.00 0.05 0.00 92 1005.4
20260507050555 57 348 4.0 13.0 0.00 0.05 0.00 93 1005.3
20260507050056 57 332 3.0 11.0 0.00 0.05 0.00 94 1005.3
20260507045600 57 323 4.0 11.0 0.00 0.05 0.00 94 1005.3
20260507045055 57 272 3.0 7.0 0.00 0.05 0.00 95 1005.2
20260507044622 57 360 2.0 7.0 0.00 0.05 0.00 95 1005.3
20260507044056 57 0 2.0 7.0 0.00 0.05 0.00 95 1005.5
20260507043554 56 297 1.0 3.0 0.00 0.05 0.00 95 1005.5
20260507043056 56 236 0.0 3.0 0.00 0.05 0.00 95 1005.2
20260507042557 56 0 0.0 7.0 0.00 0.05 0.00 95 1005.3
20260507042056 56 262 0.0 7.0 0.00 0.05 0.00 95 1005.3
20260507041557 56 211 1.0 7.0 0.00 0.05 0.00 95 1005.6
20260507041057 56 0 1.0 3.0 0.00 0.05 0.00 95 1005.6
20260507040556 56 0 1.0 3.0 0.00 0.05 0.00 95 1005.5
20260507035554 56 167 0.0 5.0 0.00 0.05 0.05 94 1005.4
20260507035058 56 191 0.0 5.0 0.00 0.05 0.05 94 1005.5
20260507034603 56 266 1.0 6.0 0.00 0.05 0.05 94 1005.6
20260507034055 56 309 1.0 11.0 0.00 0.05 0.05 94 1005.6
20260507033557 56 0 1.0 11.0 0.00 0.05 0.05 94 1005.4
20260507033124 56 187 1.0 4.0 0.00 0.05 0.05 94 1005.2
20260507032557 56 137 0.0 8.0 0.00 0.05 0.05 94 1005.1
20260507032058 56 0 1.0 8.0 0.00 0.05 0.05 94 1005.1
20260507031602 56 103 1.0 5.0 0.00 0.05 0.05 94 1004.8
20260507031057 56 133 0.0 5.0 0.00 0.05 0.05 94 1004.8
20260507030557 56 32 0.0 5.0 0.00 0.05 0.05 94 1004.9
20260507030109 56 120 1.0 6.0 0.00 0.05 0.05 94 1005.0
20260507025556 55 132 1.0 8.0 0.00 0.05 0.05 94 1004.9
20260507025054 55 149 2.0 11.0 0.00 0.05 0.05 94 1005.0
20260507024609 55 182 3.0 12.0 0.00 0.05 0.05 94 1005.1
20260507024054 55 292 2.0 12.0 0.00 0.05 0.05 94 1005.1
20260507023559 55 148 1.0 11.0 0.00 0.05 0.05 94 1005.1
20260507023057 55 183 2.0 11.0 0.00 0.05 0.05 94 1005.1
20260507022557 55 189 0.0 8.0 0.00 0.05 0.05 94 1005.0
20260507022057 55 10 1.0 8.0 0.00 0.05 0.05 94 1004.9
20260507021558 55 224 2.0 8.0 0.00 0.05 0.05 93 1005.1
20260507021100 55 290 2.0 9.0 0.00 0.05 0.05 94 1005.2
20260507020557 55 88 0.0 9.0 0.00 0.05 0.05 93 1005.2
20260507015557 55 277 2.0 11.0 0.00 0.05 0.05 93 1005.2
20260507015100 55 279 1.0 7.0 0.00 0.05 0.05 93 1005.3
20260507014605 55 302 2.0 10.0 0.00 0.05 0.05 93 1005.5
20260507014058 55 0 1.0 12.0 0.00 0.05 0.05 93 1005.2
20260507013600 55 0 4.0 12.0 0.00 0.05 0.05 93 1005.4
20260507013102 55 137 2.0 10.0 0.00 0.05 0.05 93 1005.5
20260507012555 55 277 1.0 8.0 0.00 0.05 0.05 93 1005.5
20260507012057 55 0 3.0 9.0 0.00 0.05 0.05 93 1005.6
20260507011559 55 355 2.0 9.0 0.01 0.05 0.05 93 1005.6
20260507011059 55 293 3.0 10.0 0.01 0.05 0.05 93 1005.6
20260507010558 55 214 2.0 11.0 0.01 0.05 0.05 93 1005.6
20260507010056 55 221 3.0 11.0 0.01 0.05 0.05 93 1005.5
20260507005557 55 5 1.0 8.0 0.01 0.05 0.05 93 1005.5
20260507005056 55 248 2.0 9.0 0.01 0.05 0.05 93 1005.7
20260507004558 55 100 2.0 14.0 0.01 0.05 0.05 93 1005.7
20260507004057 55 234 2.0 14.0 0.02 0.05 0.05 93 1005.6
20260507003558 55 125 3.0 14.0 0.02 0.05 0.05 93 1005.5
20260507003104 55 126 4.0 14.0 0.03 0.05 0.05 93 1005.5
20260507002558 55 0 2.0 10.0 0.03 0.05 0.05 93 1005.5
20260507002057 55 170 3.0 12.0 0.03 0.05 0.05 93 1005.4
20260507001556 55 140 3.0 12.0 0.02 0.04 0.04 93 1005.4
20260507001059 55 99 2.0 10.0 0.02 0.04 0.04 93 1005.4
20260507000601 55 53 3.0 12.0 0.02 0.04 0.04 93 1005.5
20260507000100 55 144 2.0 12.0 0.02 0.04 0.04 93 1005.6
20260506235556 56 161 4.0 12.0 0.02 0.04 0.04 93 1005.4
20260506235057 55 108 3.0 12.0 0.02 0.04 0.04 93 1005.4
20260506234605 56 106 5.0 18.0 0.02 0.04 0.04 93 1005.2
20260506234058 56 112 5.0 18.0 0.01 0.03 0.03 93 1005.3
20260506233558 56 96 5.0 12.0 0.01 0.03 0.03 92 1005.4
20260506233058 56 103 3.0 12.0 0.00 0.02 0.02 93 1005.6
20260506232557 56 123 4.0 9.0 0.00 0.02 0.02 92 1005.6
20260506232100 56 119 4.0 13.0 0.00 0.02 0.02 93 1005.5
20260506231557 56 146 3.0 15.0 0.00 0.02 0.02 93 1005.6
20260506231056 56 127 4.0 15.0 0.00 0.02 0.02 92 1005.6
20260506230557 56 138 4.0 12.0 0.00 0.02 0.02 93 1005.8
20260506225555 56 142 5.0 14.0 0.00 0.02 0.02 92 1005.7
20260506225055 56 150 5.0 14.0 0.01 0.02 0.02 92 1005.7
20260506224602 56 128 7.0 14.0 0.01 0.02 0.02 91 1005.6
20260506224056 57 124 4.0 10.0 0.01 0.02 0.02 91 1005.8
20260506223555 57 153 5.0 17.0 0.01 0.02 0.02 91 1005.8
20260506223055 57 173 4.0 17.0 0.01 0.02 0.02 91 1005.9
20260506222558 57 96 3.0 13.0 0.01 0.02 0.02 91 1006.0
20260506222057 57 173 5.0 13.0 0.01 0.02 0.02 91 1005.9
20260506221600 57 107 3.0 15.0 0.01 0.02 0.02 91 1006.1
20260506221057 57 36 4.0 15.0 0.01 0.02 0.02 91 1006.2
20260506220557 57 136 4.0 11.0 0.02 0.02 0.02 90 1006.3
20260506220101 58 148 4.0 10.0 0.02 0.02 0.02 90 1006.4
20260506215558 58 109 3.0 10.0 0.02 0.02 0.02 90 1006.4
20260506215057 58 150 3.0 10.0 0.01 0.01 0.01 90 1006.5
20260506214559 58 134 4.0 10.0 0.01 0.01 0.01 90 1006.3
20260506214057 58 182 2.0 12.0 0.01 0.01 0.01 90 1006.5
20260506213558 58 151 5.0 12.0 0.01 0.01 0.01 89 1006.4
20260506213055 58 142 4.0 13.0 0.01 0.01 0.01 89 1006.5
20260506212555 58 134 4.0 13.0 0.01 0.01 0.01 89 1006.5
20260506212055 58 139 4.0 10.0 0.01 0.01 0.01 88 1006.6
20260506211558 59 159 3.0 10.0 0.01 0.01 0.01 87 1006.7
20260506211055 59 186 3.0 11.0 0.01 0.01 0.01 86 1006.8
20260506210555 59 155 3.0 12.0 0.00 0.00 0.00 85 1006.8
20260506210055 60 251 4.0 12.0 0.00 0.00 0.00 84 1006.8
20260506205558 60 141 3.0 11.0 0.00 0.00 0.00 83 1006.7
20260506205055 60 98 3.0 11.0 0.00 0.00 0.00 82 1006.8
20260506204556 60 169 2.0 11.0 0.00 0.00 0.00 82 1006.9
20260506204057 60 157 3.0 12.0 0.00 0.00 0.00 82 1006.8
20260506203557 60 130 3.0 14.0 0.00 0.00 0.00 82 1006.8
20260506203056 60 134 5.0 15.0 0.00 0.00 0.00 82 1006.7
20260506202557 60 127 6.0 15.0 0.00 0.00 0.00 81 1006.4
20260506202057 60 119 4.0 14.0 0.00 0.00 0.00 81 1006.3
20260506201558 60 109 6.0 14.0 0.00 0.00 0.00 81 1006.3
20260506201057 61 159 4.0 14.0 0.00 0.00 0.00 81 1006.6
20260506200557 61 36 4.0 12.0 0.00 0.00 0.00 81 1006.5
20260506200059 61 152 5.0 12.0 0.00 0.00 0.00 80 1006.6
20260506195557 61 191 4.0 14.0 0.00 0.00 0.00 80 1006.8
20260506195058 61 149 5.0 14.0 0.00 0.00 0.00 79 1006.9
20260506194556 62 199 5.0 13.0 0.00 0.00 0.00 78 1007.0
20260506194057 62 335 4.0 14.0 0.00 0.00 0.00 76 1007.2
20260506193600 63 148 4.0 14.0 0.00 0.00 0.00 75 1007.0
20260506193058 63 153 3.0 10.0 0.00 0.00 0.00 74 1007.0
20260506192557 63 148 4.0 14.0 0.00 0.00 0.00 73 1006.7
20260506192057 63 141 4.0 14.0 0.00 0.00 0.00 73 1006.7
20260506191558 63 127 4.0 15.0 0.00 0.00 0.00 73 1006.8
20260506191057 63 90 4.0 17.0 0.00 0.00 0.00 73 1006.6
20260506190557 63 215 3.0 17.0 0.00 0.00 0.00 73 1006.8
20260506190058 63 99 4.0 12.0 0.00 0.00 0.00 73 1007.0
20260506185557 63 248 5.0 14.0 0.00 0.00 0.00 73 1006.8
20260506185057 63 183 4.0 17.0 0.00 0.00 0.00 73 1006.8
20260506184557 63 15 6.0 17.0 0.00 0.00 0.00 74 1007.0
20260506184058 63 159 5.0 17.0 0.00 0.00 0.00 74 1006.9
20260506183558 63 248 5.0 17.0 0.00 0.00 0.00 73 1006.8
20260506183056 63 117 5.0 14.0 0.00 0.00 0.00 72 1007.0
20260506182557 64 146 5.0 14.0 0.00 0.00 0.00 72 1007.1
20260506182055 64 182 5.0 14.0 0.00 0.00 0.00 71 1007.2
20260506181559 64 132 4.0 14.0 0.00 0.00 0.00 71 1007.3
20260506181055 64 67 4.0 14.0 0.00 0.00 0.00 70 1007.4
20260506180556 65 130 5.0 16.0 0.00 0.00 0.00 69 1007.3
20260506180058 65 158 7.0 16.0 0.00 0.00 0.00 69 1007.6
20260506175558 66 88 5.0 13.0 0.00 0.00 0.00 69 1007.5
20260506175057 66 167 6.0 13.0 0.00 0.00 0.00 68 1007.4
20260506174557 67 147 3.0 17.0 0.00 0.00 0.00 68 1007.4
20260506174056 67 227 5.0 20.0 0.00 0.00 0.00 68 1007.5
20260506173557 66 156 6.0 20.0 0.00 0.00 0.00 68 1007.4
20260506173124 66 164 5.0 15.0 0.00 0.00 0.00 69 1007.5
20260506172557 65 132 6.0 15.0 0.00 0.00 0.00 70 1007.6
20260506172102 65 355 5.0 19.0 0.00 0.00 0.00 71 1007.6
20260506171610 64 113 6.0 19.0 0.00 0.00 0.00 72 1007.7
20260506171058 63 281 5.0 14.0 0.00 0.00 0.00 73 1007.7
20260506170557 63 146 6.0 17.0 0.00 0.00 0.00 72 1007.8
20260506170055 63 140 7.0 17.0 0.00 0.00 0.00 72 1007.8
20260506165557 63 169 5.0 14.0 0.00 0.00 0.00 71 1007.7
20260506165057 64 156 7.0 16.0 0.00 0.00 0.00 70 1007.8
20260506164606 64 132 6.0 16.0 0.00 0.00 0.00 70 1007.8
20260506164055 64 123 6.0 16.0 0.00 0.00 0.00 71 1008.0
20260506163558 64 132 6.0 16.0 0.00 0.00 0.00 71 1008.1
20260506163106 64 171 6.0 12.0 0.00 0.00 0.00 72 1008.1
20260506162557 63 136 6.0 17.0 0.00 0.00 0.00 72 1008.2
20260506162056 63 119 5.0 17.0 0.00 0.00 0.00 71 1008.2
20260506161636 64 135 7.0 17.0 0.00 0.00 0.00 71 1008.5
20260506161057 63 110 5.0 18.0 0.00 0.00 0.00 71 1008.5
20260506160555 63 136 7.0 18.0 0.00 0.00 0.00 71 1008.5
20260506160111 64 189 7.0 14.0 0.00 0.00 0.00 69 1008.7
20260506155558 64 130 4.0 14.0 0.00 0.00 0.00 69 1008.6
20260506155059 65 109 6.0 14.0 0.00 0.00 0.00 67 1008.8
20260506154600 66 146 6.0 14.0 0.00 0.00 0.00 67 1008.9
20260506154058 67 168 6.0 13.0 0.00 0.00 0.00 65 1009.0
20260506153557 68 150 5.0 15.0 0.00 0.00 0.00 65 1009.0
20260506153059 68 162 4.0 15.0 0.00 0.00 0.00 66 1009.0
20260506152557 67 120 5.0 15.0 0.00 0.00 0.00 66 1009.0
20260506152058 67 126 2.0 9.0 0.00 0.00 0.00 67 1009.2
20260506151558 67 176 3.0 12.0 0.00 0.00 0.00 67 1009.2
20260506151057 67 268 3.0 12.0 0.00 0.00 0.00 68 1009.3
20260506150557 67 297 3.0 10.0 0.00 0.00 0.00 68 1009.2
20260506150057 66 327 3.0 10.0 0.00 0.00 0.00 69 1009.2
20260506145601 66 36 3.0 13.0 0.00 0.00 0.00 70 1009.1
20260506145055 65 204 4.0 13.0 0.00 0.00 0.00 71 1009.1
20260506144556 64 164 6.0 14.0 0.00 0.00 0.00 72 1009.0
20260506144054 64 140 7.0 16.0 0.00 0.00 0.00 72 1008.8
20260506143555 64 112 6.0 16.0 0.00 0.00 0.00 73 1009.0
20260506143057 64 174 5.0 14.0 0.00 0.00 0.00 73 1008.9
20260506142556 64 117 6.0 14.0 0.00 0.00 0.00 73 1008.9
20260506142059 63 157 5.0 14.0 0.00 0.00 0.00 75 1008.8
20260506141556 62 115 5.0 15.0 0.00 0.00 0.00 75 1008.9
20260506141055 62 138 8.0 15.0 0.00 0.00 0.00 75 1009.1
20260506140555 62 131 4.0 16.0 0.00 0.00 0.00 75 1009.1
20260506140056 62 96 5.0 16.0 0.00 0.00 0.00 75 1009.1
20260506135558 63 130 4.0 14.0 0.00 0.00 0.00 75 1009.3
20260506135057 63 172 5.0 11.0 0.00 0.00 0.00 74 1009.5
20260506134555 63 103 3.0 12.0 0.00 0.00 0.00 74 1009.6
20260506134055 63 151 4.0 12.0 0.00 0.00 0.00 75 1009.5
20260506133557 63 117 4.0 14.0 0.00 0.00 0.00 76 1009.5
20260506133100 63 128 4.0 14.0 0.00 0.00 0.00 76 1009.4
20260506132554 62 225 4.0 17.0 0.00 0.00 0.00 76 1009.5
20260506132054 62 202 5.0 17.0 0.00 0.00 0.00 76 1009.4
20260506131602 62 195 4.0 12.0 0.00 0.00 0.00 77 1009.4
20260506131057 62 155 4.0 12.0 0.00 0.00 0.00 77 1009.5
20260506130558 61 100 4.0 12.0 0.00 0.00 0.00 78 1009.5
20260506130126 61 147 3.0 9.0 0.00 0.00 0.00 80 1009.6
20260506125554 60 80 2.0 11.0 0.00 0.00 0.00 81 1009.7
20260506125056 59 0 2.0 12.0 0.00 0.00 0.00 81 1009.8
20260506124600 59 175 4.0 12.0 0.00 0.00 0.00 82 1009.7
20260506124100 59 238 1.0 13.0 0.00 0.00 0.00 82 1009.7
20260506123557 59 0 4.0 13.0 0.00 0.00 0.00 82 1009.5
20260506123059 59 261 4.0 12.0 0.00 0.00 0.00 83 1009.3
20260506122558 59 57 3.0 12.0 0.00 0.00 0.00 83 1009.4
20260506122056 58 123 2.0 11.0 0.00 0.00 0.00 83 1009.4
20260506121558 58 105 1.0 9.0 0.00 0.00 0.00 84 1009.5